| time (UTC) | temp C | wind direction | speed KPH | gust KPH | rain 1hr cm | rain 24hr cm | rain mn cm | humidity % | barometer mb |
| 20260508050055 | 13 | 213 | 9.7 | 19.3 | 0.00 | 0.00 | 0.00 | 68 | 1008.9 |
| 20260508045550 | 13 | 191 | 9.7 | 19.3 | 0.00 | 0.00 | 0.00 | 68 | 1008.9 |
| 20260508045046 | 13 | 197 | 9.7 | 19.3 | 0.00 | 0.00 | 0.00 | 68 | 1008.9 |
| 20260508044758 | 13 | 195 | 8.0 | 14.5 | 0.00 | 0.00 | 0.00 | 67 | 1009.0 |
| 20260508044033 | 13 | 174 | 8.0 | 19.3 | 0.00 | 0.00 | 0.00 | 67 | 1009.0 |
| 20260508043527 | 13 | 195 | 9.7 | 19.3 | 0.00 | 0.00 | 0.00 | 67 | 1009.0 |
| 20260508043021 | 13 | 187 | 9.7 | 19.3 | 0.00 | 0.00 | 0.00 | 67 | 1009.1 |
| 20260508042514 | 13 | 182 | 8.0 | 16.1 | 0.00 | 0.00 | 0.00 | 67 | 1009.0 |
| 20260508042009 | 13 | 194 | 9.7 | 16.1 | 0.00 | 0.00 | 0.00 | 67 | 1009.0 |
| 20260508041503 | 13 | 175 | 8.0 | 16.1 | 0.00 | 0.00 | 0.00 | 67 | 1009.0 |
| 20260508041224 | 13 | 186 | 8.0 | 17.7 | 0.00 | 0.00 | 0.00 | 67 | 1009.1 |
| 20260508040450 | 13 | 182 | 9.7 | 17.7 | 0.00 | 0.00 | 0.00 | 66 | 1009.1 |
| 20260508040213 | 13 | 182 | 9.7 | 17.7 | 0.00 | 0.00 | 0.00 | 66 | 1009.1 |
| 20260508035439 | 13 | 180 | 9.7 | 16.1 | 0.00 | 0.00 | 0.00 | 66 | 1009.1 |
| 20260508035156 | 13 | 202 | 8.0 | 17.7 | 0.00 | 0.00 | 0.00 | 67 | 1009.0 |
| 20260508034426 | 13 | 173 | 8.0 | 19.3 | 0.00 | 0.00 | 0.00 | 67 | 1009.0 |
| 20260508033920 | 13 | 194 | 8.0 | 19.3 | 0.00 | 0.00 | 0.00 | 67 | 1009.0 |
| 20260508033415 | 13 | 180 | 8.0 | 16.1 | 0.00 | 0.00 | 0.00 | 67 | 1008.9 |
| 20260508032908 | 13 | 165 | 8.0 | 16.1 | 0.00 | 0.00 | 0.00 | 67 | 1008.9 |
| 20260508032405 | 13 | 178 | 6.4 | 14.5 | 0.00 | 0.00 | 0.00 | 67 | 1009.0 |
| 20260508031903 | 13 | 178 | 6.4 | 14.5 | 0.00 | 0.00 | 0.00 | 66 | 1008.8 |
| 20260508031625 | 13 | 175 | 4.8 | 11.3 | 0.00 | 0.00 | 0.00 | 66 | 1008.9 |
| 20260508030903 | 13 | 177 | 4.8 | 11.3 | 0.00 | 0.00 | 0.00 | 66 | 1008.8 |
| 20260508030401 | 13 | 177 | 6.4 | 11.3 | 0.00 | 0.00 | 0.00 | 66 | 1008.8 |
| 20260508025900 | 13 | 186 | 4.8 | 14.5 | 0.00 | 0.00 | 0.00 | 65 | 1008.9 |
| 20260508025402 | 14 | 173 | 4.8 | 14.5 | 0.00 | 0.00 | 0.00 | 65 | 1008.7 |
| 20260508024859 | 14 | 179 | 4.8 | 12.9 | 0.00 | 0.00 | 0.00 | 65 | 1008.7 |
| 20260508024357 | 14 | 174 | 4.8 | 11.3 | 0.00 | 0.00 | 0.00 | 65 | 1008.6 |
| 20260508023855 | 14 | 181 | 3.2 | 9.7 | 0.00 | 0.00 | 0.00 | 64 | 1008.5 |
| 20260508023355 | 14 | 175 | 3.2 | 9.7 | 0.00 | 0.00 | 0.00 | 64 | 1008.5 |
| 20260508022858 | 14 | 189 | 3.2 | 8.0 | 0.00 | 0.00 | 0.00 | 64 | 1008.5 |
| 20260508022352 | 14 | 173 | 3.2 | 11.3 | 0.00 | 0.00 | 0.00 | 63 | 1008.5 |
| 20260508021852 | 14 | 173 | 4.8 | 11.3 | 0.00 | 0.00 | 0.00 | 63 | 1008.3 |
| 20260508021354 | 15 | 184 | 4.8 | 11.3 | 0.00 | 0.00 | 0.00 | 63 | 1008.3 |
| 20260508020853 | 15 | 179 | 4.8 | 12.9 | 0.00 | 0.00 | 0.00 | 62 | 1008.3 |
| 20260508020353 | 15 | 180 | 6.4 | 12.9 | 0.00 | 0.00 | 0.00 | 61 | 1008.3 |
| 20260508015851 | 15 | 175 | 4.8 | 14.5 | 0.00 | 0.00 | 0.00 | 61 | 1008.3 |
| 20260508015617 | 15 | 185 | 3.2 | 14.5 | 0.00 | 0.00 | 0.00 | 60 | 1008.2 |
| 20260508014845 | 15 | 178 | 3.2 | 8.0 | 0.00 | 0.00 | 0.00 | 59 | 1008.2 |
| 20260508014343 | 15 | 173 | 3.2 | 11.3 | 0.00 | 0.00 | 0.00 | 59 | 1008.2 |
| 20260508014114 | 16 | 186 | 3.2 | 11.3 | 0.00 | 0.00 | 0.00 | 58 | 1008.2 |
| 20260508013344 | 16 | 182 | 3.2 | 6.4 | 0.00 | 0.00 | 0.00 | 57 | 1008.2 |
| 20260508012843 | 16 | 180 | 3.2 | 8.0 | 0.00 | 0.00 | 0.00 | 56 | 1008.2 |
| 20260508012607 | 16 | 180 | 4.8 | 9.7 | 0.00 | 0.00 | 0.00 | 56 | 1008.2 |
| 20260508011841 | 16 | 181 | 6.4 | 12.9 | 0.00 | 0.00 | 0.00 | 55 | 1008.2 |
| 20260508011341 | 16 | 173 | 6.4 | 12.9 | 0.00 | 0.00 | 0.00 | 54 | 1008.1 |
| 20260508010840 | 17 | 186 | 6.4 | 11.3 | 0.00 | 0.00 | 0.00 | 53 | 1008.1 |
| 20260508010339 | 17 | 173 | 6.4 | 11.3 | 0.00 | 0.00 | 0.00 | 53 | 1008.1 |
| 20260508005841 | 17 | 185 | 6.4 | 11.3 | 0.00 | 0.00 | 0.00 | 52 | 1008.1 |
| 20260508005342 | 17 | 191 | 4.8 | 9.7 | 0.00 | 0.00 | 0.00 | 52 | 1008.1 |
| 20260508004840 | 17 | 184 | 6.4 | 11.3 | 0.00 | 0.00 | 0.00 | 51 | 1008.0 |
| 20260508004602 | 18 | 182 | 6.4 | 11.3 | 0.00 | 0.00 | 0.00 | 50 | 1008.0 |
| 20260508003837 | 18 | 172 | 6.4 | 11.3 | 0.00 | 0.00 | 0.00 | 50 | 1008.0 |
| 20260508003336 | 18 | 197 | 6.4 | 14.5 | 0.00 | 0.00 | 0.00 | 49 | 1008.0 |
| 20260508002837 | 18 | 217 | 6.4 | 17.7 | 0.00 | 0.00 | 0.00 | 49 | 1008.1 |
| 20260508002338 | 18 | 191 | 8.0 | 19.3 | 0.00 | 0.00 | 0.00 | 50 | 1008.1 |
| 20260508001834 | 18 | 188 | 8.0 | 19.3 | 0.00 | 0.00 | 0.00 | 49 | 1008.0 |
| 20260508001335 | 18 | 227 | 8.0 | 19.3 | 0.00 | 0.00 | 0.00 | 48 | 1008.1 |
| 20260508001105 | 18 | 183 | 9.7 | 25.7 | 0.00 | 0.00 | 0.00 | 48 | 1008.1 |
| 20260508000335 | 18 | 171 | 9.7 | 25.7 | 0.00 | 0.00 | 0.00 | 48 | 1008.2 |
| 20260507235835 | 18 | 215 | 11.3 | 27.4 | 0.00 | 0.00 | 0.00 | 48 | 1008.2 |
| 20260507235334 | 18 | 221 | 12.9 | 27.4 | 0.00 | 0.00 | 0.00 | 48 | 1008.2 |
| 20260507234834 | 18 | 223 | 11.3 | 20.9 | 0.00 | 0.00 | 0.00 | 48 | 1008.3 |
| 20260507234335 | 18 | 216 | 9.7 | 19.3 | 0.00 | 0.00 | 0.00 | 49 | 1008.2 |
| 20260507233835 | 19 | 221 | 11.3 | 22.5 | 0.00 | 0.00 | 0.00 | 48 | 1008.2 |
| 20260507233331 | 19 | 221 | 11.3 | 22.5 | 0.00 | 0.00 | 0.00 | 47 | 1008.2 |
| 20260507232831 | 19 | 218 | 11.3 | 20.9 | 0.00 | 0.00 | 0.00 | 47 | 1008.3 |
| 20260507232331 | 19 | 230 | 9.7 | 20.9 | 0.00 | 0.00 | 0.00 | 47 | 1008.4 |
| 20260507231830 | 19 | 229 | 11.3 | 25.7 | 0.00 | 0.00 | 0.00 | 48 | 1008.4 |
| 20260507231331 | 19 | 249 | 11.3 | 25.7 | 0.00 | 0.00 | 0.00 | 49 | 1008.4 |
| 20260507230833 | 19 | 227 | 9.7 | 24.1 | 0.00 | 0.00 | 0.00 | 49 | 1008.5 |
| 20260507230333 | 19 | 217 | 9.7 | 19.3 | 0.00 | 0.00 | 0.00 | 47 | 1008.5 |
| 20260507225834 | 19 | 211 | 9.7 | 19.3 | 0.00 | 0.00 | 0.00 | 48 | 1008.7 |
| 20260507225333 | 19 | 252 | 11.3 | 20.9 | 0.00 | 0.00 | 0.00 | 49 | 1008.7 |
| 20260507225052 | 18 | 224 | 12.9 | 25.7 | 0.00 | 0.00 | 0.00 | 49 | 1008.8 |
| 20260507224331 | 18 | 233 | 14.5 | 25.7 | 0.00 | 0.00 | 0.00 | 48 | 1008.8 |
| 20260507224051 | 18 | 227 | 14.5 | 27.4 | 0.00 | 0.00 | 0.00 | 47 | 1008.9 |
| 20260507223331 | 19 | 251 | 14.5 | 27.4 | 0.00 | 0.00 | 0.00 | 46 | 1009.0 |
| 20260507223049 | 19 | 259 | 12.9 | 25.7 | 0.00 | 0.00 | 0.00 | 48 | 1009.0 |
| 20260507222329 | 19 | 233 | 11.3 | 19.3 | 0.00 | 0.00 | 0.00 | 48 | 1009.0 |
| 20260507221828 | 19 | 244 | 9.7 | 20.9 | 0.00 | 0.00 | 0.00 | 45 | 1009.0 |
| 20260507221328 | 19 | 194 | 11.3 | 20.9 | 0.00 | 0.00 | 0.00 | 45 | 1009.0 |
| 20260507220829 | 19 | 248 | 12.9 | 24.1 | 0.00 | 0.00 | 0.00 | 47 | 1009.0 |
| 20260507220329 | 18 | 221 | 12.9 | 24.1 | 0.00 | 0.00 | 0.00 | 48 | 1009.1 |
| 20260507215827 | 18 | 227 | 14.5 | 30.6 | 0.00 | 0.00 | 0.00 | 47 | 1009.1 |
| 20260507215324 | 18 | 254 | 14.5 | 30.6 | 0.00 | 0.00 | 0.00 | 47 | 1009.1 |
| 20260507214830 | 18 | 220 | 14.5 | 29.0 | 0.00 | 0.00 | 0.00 | 49 | 1009.1 |
| 20260507214323 | 18 | 245 | 14.5 | 29.0 | 0.00 | 0.00 | 0.00 | 46 | 1009.1 |
| 20260507213818 | 18 | 238 | 14.5 | 25.7 | 0.00 | 0.00 | 0.00 | 45 | 1009.1 |
| 20260507213311 | 18 | 229 | 17.7 | 33.8 | 0.00 | 0.00 | 0.00 | 46 | 1009.1 |
| 20260507212805 | 18 | 250 | 19.3 | 33.8 | 0.00 | 0.00 | 0.00 | 45 | 1009.1 |
| 20260507212300 | 19 | 250 | 17.7 | 30.6 | 0.00 | 0.00 | 0.00 | 46 | 1009.2 |
| 20260507212026 | 18 | 254 | 16.1 | 27.4 | 0.00 | 0.00 | 0.00 | 48 | 1009.2 |
| 20260507211247 | 18 | 212 | 14.5 | 27.4 | 0.00 | 0.00 | 0.00 | 47 | 1009.1 |
| 20260507210754 | 18 | 217 | 17.7 | 33.8 | 0.00 | 0.00 | 0.00 | 46 | 1009.2 |
| 20260507210500 | 18 | 225 | 16.1 | 33.8 | 0.00 | 0.00 | 0.00 | 44 | 1009.2 |
| 20260507205729 | 18 | 252 | 12.9 | 24.1 | 0.00 | 0.00 | 0.00 | 47 | 1009.3 |
| 20260507205442 | 18 | 227 | 16.1 | 29.0 | 0.00 | 0.00 | 0.00 | 46 | 1009.3 |
| 20260507204718 | 19 | 249 | 16.1 | 29.0 | 0.00 | 0.00 | 0.00 | 45 | 1009.3 |
| 20260507204211 | 19 | 234 | 12.9 | 24.1 | 0.00 | 0.00 | 0.00 | 47 | 1009.3 |
| 20260507203705 | 19 | 240 | 16.1 | 30.6 | 0.00 | 0.00 | 0.00 | 44 | 1009.5 |
| 20260507203159 | 19 | 209 | 19.3 | 30.6 | 0.00 | 0.00 | 0.00 | 43 | 1009.4 |
| 20260507202654 | 20 | 233 | 20.9 | 30.6 | 0.00 | 0.00 | 0.00 | 44 | 1009.5 |
| 20260507202147 | 20 | 244 | 22.5 | 33.8 | 0.00 | 0.00 | 0.00 | 43 | 1009.5 |
| 20260507201909 | 19 | 226 | 19.3 | 33.8 | 0.00 | 0.00 | 0.00 | 42 | 1009.6 |
| 20260507201406 | 18 | 239 | 14.5 | 33.8 | 0.00 | 0.00 | 0.00 | 45 | 1009.5 |
| 20260507200642 | 18 | 169 | 12.9 | 25.7 | 0.00 | 0.00 | 0.00 | 44 | 1009.7 |
| 20260507200123 | 18 | 201 | 14.5 | 24.1 | 0.00 | 0.00 | 0.00 | 45 | 1009.9 |
| 20260507195618 | 19 | 161 | 16.1 | 24.1 | 0.00 | 0.00 | 0.00 | 46 | 1010.0 |
| 20260507195111 | 19 | 231 | 16.1 | 27.4 | 0.00 | 0.00 | 0.00 | 45 | 1010.2 |
| 20260507194605 | 19 | 238 | 16.1 | 27.4 | 0.00 | 0.00 | 0.00 | 47 | 1010.2 |
| 20260507194059 | 19 | 261 | 17.7 | 30.6 | 0.00 | 0.00 | 0.00 | 45 | 1010.2 |
| 20260507193553 | 19 | 248 | 16.1 | 30.6 | 0.00 | 0.00 | 0.00 | 44 | 1010.4 |
| 20260507193047 | 18 | 254 | 17.7 | 35.4 | 0.00 | 0.00 | 0.00 | 47 | 1010.4 |
| 20260507192542 | 18 | 245 | 17.7 | 35.4 | 0.00 | 0.00 | 0.00 | 47 | 1010.4 |
| 20260507192036 | 18 | 261 | 16.1 | 30.6 | 0.00 | 0.00 | 0.00 | 46 | 1010.5 |
| 20260507191529 | 18 | 269 | 14.5 | 30.6 | 0.00 | 0.00 | 0.00 | 46 | 1010.5 |
| 20260507191023 | 18 | 221 | 16.1 | 25.7 | 0.00 | 0.00 | 0.00 | 46 | 1010.6 |
| 20260507190741 | 18 | 214 | 17.7 | 30.6 | 0.00 | 0.00 | 0.00 | 45 | 1010.7 |
| 20260507190014 | 18 | 242 | 17.7 | 30.6 | 0.00 | 0.00 | 0.00 | 45 | 1010.6 |
| 20260507185732 | 18 | 261 | 17.7 | 32.2 | 0.00 | 0.00 | 0.00 | 48 | 1010.7 |
| 20260507185154 | 18 | 215 | 17.7 | 30.6 | 0.00 | 0.00 | 0.00 | 47 | 1010.7 |
| 20260507185047 | 18 | 245 | 17.7 | 32.2 | 0.00 | 0.00 | 0.00 | 46 | 1010.7 |
| 20260507183947 | 18 | 262 | 16.1 | 29.0 | 0.00 | 0.00 | 0.00 | 47 | 1010.7 |
| 20260507183442 | 18 | 275 | 19.3 | 32.2 | 0.00 | 0.00 | 0.00 | 48 | 1010.8 |
| 20260507182935 | 18 | 225 | 19.3 | 32.2 | 0.00 | 0.00 | 0.00 | 45 | 1010.9 |
| 20260507182429 | 18 | 257 | 20.9 | 33.8 | 0.00 | 0.00 | 0.00 | 49 | 1011.0 |
| 20260507182142 | 18 | 217 | 20.9 | 33.8 | 0.00 | 0.00 | 0.00 | 47 | 1011.0 |
| 20260507181638 | 18 | 248 | 20.9 | 32.2 | 0.00 | 0.00 | 0.00 | 48 | 1011.0 |
| 20260507180911 | 18 | 246 | 20.9 | 33.8 | 0.00 | 0.00 | 0.00 | 48 | 1011.1 |
| 20260507180418 | 17 | 252 | 20.9 | 33.8 | 0.00 | 0.00 | 0.00 | 49 | 1011.1 |
| 20260507175900 | 18 | 242 | 20.9 | 40.2 | 0.00 | 0.00 | 0.00 | 49 | 1011.3 |
| 20260507175354 | 18 | 250 | 20.9 | 40.2 | 0.00 | 0.00 | 0.00 | 48 | 1011.2 |
| 20260507174848 | 18 | 264 | 17.7 | 30.6 | 0.00 | 0.00 | 0.00 | 49 | 1011.3 |
| 20260507174342 | 18 | 243 | 19.3 | 30.6 | 0.00 | 0.00 | 0.00 | 51 | 1011.4 |
| 20260507174058 | 17 | 257 | 22.5 | 37.0 | 0.00 | 0.00 | 0.00 | 49 | 1011.4 |
| 20260507173329 | 17 | 234 | 20.9 | 37.0 | 0.00 | 0.00 | 0.00 | 49 | 1011.4 |
| 20260507172823 | 17 | 260 | 20.9 | 37.0 | 0.00 | 0.00 | 0.00 | 50 | 1011.5 |
| 20260507172318 | 17 | 242 | 24.1 | 38.6 | 0.00 | 0.00 | 0.00 | 49 | 1011.6 |
| 20260507171811 | 17 | 233 | 24.1 | 38.6 | 0.00 | 0.00 | 0.00 | 49 | 1011.6 |
| 20260507171306 | 17 | 273 | 22.5 | 33.8 | 0.00 | 0.00 | 0.00 | 50 | 1011.8 |
| 20260507171021 | 17 | 238 | 24.1 | 33.8 | 0.00 | 0.00 | 0.00 | 49 | 1011.8 |
| 20260507170249 | 17 | 250 | 22.5 | 32.2 | 0.00 | 0.00 | 0.00 | 51 | 1011.8 |
| 20260507165751 | 16 | 261 | 22.5 | 32.2 | 0.00 | 0.00 | 0.00 | 51 | 1011.8 |
| 20260507165250 | 16 | 276 | 22.5 | 33.8 | 0.00 | 0.00 | 0.00 | 51 | 1012.0 |
| 20260507164751 | 16 | 242 | 24.1 | 38.6 | 0.00 | 0.00 | 0.00 | 50 | 1012.1 |
| 20260507164249 | 16 | 253 | 22.5 | 38.6 | 0.00 | 0.00 | 0.00 | 52 | 1012.0 |
| 20260507163749 | 16 | 259 | 22.5 | 35.4 | 0.00 | 0.00 | 0.00 | 52 | 1012.2 |
| 20260507163250 | 16 | 225 | 22.5 | 35.4 | 0.00 | 0.00 | 0.00 | 54 | 1012.3 |
| 20260507162750 | 16 | 212 | 22.5 | 33.8 | 0.00 | 0.00 | 0.00 | 54 | 1012.2 |
| 20260507162250 | 16 | 223 | 20.9 | 33.8 | 0.00 | 0.00 | 0.00 | 54 | 1012.3 |
| 20260507161749 | 15 | 277 | 22.5 | 33.8 | 0.00 | 0.00 | 0.00 | 55 | 1012.3 |
| 20260507161250 | 16 | 266 | 24.1 | 37.0 | 0.00 | 0.00 | 0.00 | 54 | 1012.4 |
| 20260507160750 | 16 | 254 | 24.1 | 37.0 | 0.00 | 0.00 | 0.00 | 54 | 1012.4 |
| 20260507160249 | 15 | 259 | 24.1 | 35.4 | 0.00 | 0.00 | 0.00 | 55 | 1012.5 |
| 20260507155749 | 15 | 242 | 20.9 | 32.2 | 0.00 | 0.00 | 0.00 | 56 | 1012.5 |
| 20260507155247 | 15 | 243 | 20.9 | 41.8 | 0.00 | 0.00 | 0.00 | 59 | 1012.5 |
| 20260507154745 | 15 | 232 | 22.5 | 41.8 | 0.00 | 0.00 | 0.00 | 56 | 1012.6 |
| 20260507154245 | 15 | 225 | 20.9 | 30.6 | 0.00 | 0.00 | 0.00 | 59 | 1012.5 |
| 20260507153745 | 15 | 221 | 20.9 | 30.6 | 0.00 | 0.00 | 0.00 | 60 | 1012.6 |
| 20260507153246 | 15 | 252 | 19.3 | 30.6 | 0.00 | 0.00 | 0.00 | 60 | 1012.5 |
| 20260507152745 | 15 | 205 | 19.3 | 30.6 | 0.00 | 0.00 | 0.00 | 60 | 1012.7 |
| 20260507152246 | 14 | 253 | 20.9 | 32.2 | 0.00 | 0.00 | 0.00 | 61 | 1012.8 |
| 20260507151746 | 14 | 240 | 22.5 | 32.2 | 0.00 | 0.00 | 0.00 | 60 | 1012.9 |
| 20260507151247 | 14 | 250 | 20.9 | 29.0 | 0.00 | 0.00 | 0.00 | 63 | 1012.7 |
| 20260507150745 | 14 | 272 | 19.3 | 29.0 | 0.00 | 0.00 | 0.00 | 62 | 1012.9 |
| 20260507150246 | 14 | 222 | 17.7 | 27.4 | 0.00 | 0.00 | 0.00 | 63 | 1012.9 |
| 20260507145746 | 13 | 269 | 17.7 | 25.7 | 0.00 | 0.00 | 0.00 | 63 | 1012.8 |
| 20260507145245 | 13 | 265 | 16.1 | 25.7 | 0.00 | 0.00 | 0.00 | 64 | 1012.9 |
| 20260507144746 | 13 | 266 | 12.9 | 20.9 | 0.00 | 0.00 | 0.00 | 66 | 1012.9 |
| 20260507144245 | 13 | 254 | 14.5 | 25.7 | 0.00 | 0.00 | 0.00 | 66 | 1012.9 |
| 20260507144234 | 13 | 257 | 14.5 | 25.7 | 0.00 | 0.00 | 0.00 | 67 | 1012.8 |
| 20260507143245 | 12 | 227 | 14.5 | 22.5 | 0.00 | 0.00 | 0.00 | 66 | 1012.9 |
| 20260507142745 | 12 | 244 | 14.5 | 22.5 | 0.00 | 0.00 | 0.00 | 66 | 1013.0 |
| 20260507142238 | 12 | 246 | 16.1 | 24.1 | 0.00 | 0.00 | 0.00 | 68 | 1013.1 |
| 20260507141732 | 12 | 231 | 14.5 | 24.1 | 0.00 | 0.00 | 0.00 | 68 | 1013.2 |
| 20260507141232 | 12 | 239 | 14.5 | 24.1 | 0.00 | 0.00 | 0.00 | 68 | 1013.2 |
| 20260507140732 | 11 | 244 | 14.5 | 27.4 | 0.00 | 0.00 | 0.00 | 69 | 1013.2 |
| 20260507140232 | 11 | 219 | 16.1 | 29.0 | 0.00 | 0.00 | 0.00 | 69 | 1013.3 |
| 20260507135734 | 11 | 267 | 16.1 | 29.0 | 0.00 | 0.00 | 0.00 | 69 | 1013.2 |
| 20260507135500 | 11 | 217 | 14.5 | 24.1 | 0.00 | 0.00 | 0.00 | 69 | 1013.3 |
| 20260507134735 | 11 | 259 | 14.5 | 20.9 | 0.00 | 0.00 | 0.00 | 70 | 1013.3 |
| 20260507134232 | 10 | 235 | 14.5 | 24.1 | 0.00 | 0.00 | 0.00 | 70 | 1013.4 |
| 20260507133732 | 10 | 186 | 12.9 | 24.1 | 0.00 | 0.00 | 0.00 | 70 | 1013.3 |
| 20260507133231 | 10 | 232 | 12.9 | 20.9 | 0.00 | 0.00 | 0.00 | 70 | 1013.4 |
| 20260507132734 | 10 | 226 | 12.9 | 20.9 | 0.00 | 0.00 | 0.00 | 70 | 1013.5 |
| 20260507132231 | 10 | 217 | 12.9 | 20.9 | 0.00 | 0.00 | 0.00 | 71 | 1013.5 |
| 20260507131731 | 9 | 254 | 12.9 | 22.5 | 0.00 | 0.00 | 0.00 | 71 | 1013.4 |
| 20260507131231 | 9 | 200 | 12.9 | 22.5 | 0.00 | 0.00 | 0.00 | 71 | 1013.5 |
| 20260507130737 | 9 | 232 | 12.9 | 24.1 | 0.00 | 0.00 | 0.00 | 72 | 1013.5 |
| 20260507130249 | 8 | 248 | 14.5 | 24.1 | 0.00 | 0.00 | 0.00 | 71 | 1013.5 |
| 20260507125737 | 8 | 262 | 12.9 | 20.9 | 0.00 | 0.00 | 0.00 | 72 | 1013.5 |
| 20260507125236 | 8 | 211 | 11.3 | 20.9 | 0.00 | 0.00 | 0.00 | 73 | 1013.5 |
| 20260507124730 | 8 | 238 | 11.3 | 17.7 | 0.00 | 0.00 | 0.00 | 73 | 1013.5 |
| 20260507124444 | 7 | 230 | 11.3 | 17.7 | 0.00 | 0.00 | 0.00 | 73 | 1013.5 |
| 20260507123718 | 7 | 216 | 9.7 | 19.3 | 0.00 | 0.00 | 0.00 | 73 | 1013.5 |
| 20260507123212 | 7 | 244 | 11.3 | 19.3 | 0.00 | 0.00 | 0.00 | 73 | 1013.5 |
| 20260507122930 | 7 | 219 | 9.7 | 19.3 | 0.00 | 0.00 | 0.00 | 73 | 1013.4 |
| 20260507122200 | 7 | 246 | 9.7 | 19.3 | 0.00 | 0.00 | 0.00 | 72 | 1013.4 |
| 20260507121921 | 7 | 229 | 9.7 | 19.3 | 0.00 | 0.00 | 0.00 | 73 | 1013.4 |
| 20260507121148 | 7 | 238 | 9.7 | 17.7 | 0.00 | 0.00 | 0.00 | 73 | 1013.4 |
| 20260507120642 | 6 | 217 | 8.0 | 17.7 | 0.00 | 0.00 | 0.00 | 73 | 1013.3 |
| 20260507120136 | 6 | 212 | 8.0 | 16.1 | 0.00 | 0.00 | 0.00 | 72 | 1013.4 |
| 20260507115848 | 6 | 223 | 8.0 | 16.1 | 0.00 | 0.00 | 0.00 | 72 | 1013.2 |
| 20260507115124 | 6 | 211 | 8.0 | 17.7 | 0.00 | 0.00 | 0.00 | 72 | 1013.2 |
| 20260507114618 | 6 | 227 | 8.0 | 17.7 | 0.00 | 0.00 | 0.00 | 71 | 1013.2 |
| 20260507114112 | 6 | 238 | 8.0 | 17.7 | 0.00 | 0.00 | 0.00 | 71 | 1013.2 |
| 20260507113606 | 6 | 203 | 8.0 | 14.5 | 0.00 | 0.00 | 0.00 | 70 | 1013.1 |
| 20260507113323 | 6 | 199 | 6.4 | 16.1 | 0.00 | 0.00 | 0.00 | 70 | 1013.1 |
| 20260507112554 | 6 | 202 | 6.4 | 16.1 | 0.00 | 0.00 | 0.00 | 69 | 1013.2 |
| 20260507112048 | 6 | 196 | 6.4 | 14.5 | 0.00 | 0.00 | 0.00 | 69 | 1013.2 |
| 20260507111542 | 6 | 223 | 6.4 | 14.5 | 0.00 | 0.00 | 0.00 | 68 | 1013.2 |
| 20260507111036 | 6 | 237 | 6.4 | 14.5 | 0.00 | 0.00 | 0.00 | 68 | 1013.3 |
| 20260507110749 | 6 | 234 | 4.8 | 14.5 | 0.00 | 0.00 | 0.00 | 67 | 1013.2 |
| 20260507110024 | 6 | 205 | 6.4 | 11.3 | 0.00 | 0.00 | 0.00 | 67 | 1013.2 |
| 20260507105518 | 6 | 184 | 6.4 | 11.3 | 0.00 | 0.00 | 0.00 | 67 | 1013.2 |
| 20260507105012 | 6 | 235 | 4.8 | 11.3 | 0.00 | 0.00 | 0.00 | 67 | 1013.2 |
| 20260507104506 | 6 | 189 | 6.4 | 11.3 | 0.00 | 0.00 | 0.00 | 68 | 1013.2 |
| 20260507104000 | 6 | 197 | 6.4 | 11.3 | 0.00 | 0.00 | 0.00 | 68 | 1013.2 |
| 20260507103454 | 6 | 195 | 4.8 | 14.5 | 0.00 | 0.00 | 0.00 | 68 | 1013.3 |
| 20260507102950 | 6 | 204 | 6.4 | 16.1 | 0.00 | 0.00 | 0.00 | 68 | 1013.3 |
| 20260507102442 | 6 | 178 | 6.4 | 16.1 | 0.00 | 0.00 | 0.00 | 68 | 1013.3 |
| 20260507102157 | 6 | 172 | 8.0 | 14.5 | 0.00 | 0.00 | 0.00 | 67 | 1013.4 |
| 20260507101430 | 6 | 174 | 6.4 | 14.5 | 0.00 | 0.00 | 0.00 | 67 | 1013.5 |
| 20260507100924 | 6 | 173 | 4.8 | 11.3 | 0.00 | 0.00 | 0.00 | 67 | 1013.7 |
| 20260507100637 | 6 | 214 | 4.8 | 8.0 | 0.00 | 0.00 | 0.00 | 67 | 1013.8 |
| 20260507100132 | 6 | 233 | 4.8 | 12.9 | 0.00 | 0.00 | 0.00 | 67 | 1013.8 |
| 20260507095407 | 6 | 200 | 4.8 | 16.1 | 0.00 | 0.00 | 0.00 | 66 | 1013.8 |
| 20260507094901 | 6 | 181 | 6.4 | 16.1 | 0.00 | 0.00 | 0.00 | 66 | 1013.8 |
| 20260507094354 | 6 | 179 | 4.8 | 11.3 | 0.00 | 0.00 | 0.00 | 66 | 1013.7 |
| 20260507093849 | 6 | 208 | 3.2 | 9.7 | 0.00 | 0.00 | 0.00 | 66 | 1013.8 |
| 20260507093342 | 6 | 197 | 4.8 | 11.3 | 0.00 | 0.00 | 0.00 | 66 | 1013.8 |
| 20260507092836 | 6 | 177 | 4.8 | 11.3 | 0.00 | 0.00 | 0.00 | 66 | 1013.9 |
| 20260507092330 | 6 | 197 | 4.8 | 9.7 | 0.00 | 0.00 | 0.00 | 66 | 1013.9 |
| 20260507091837 | 6 | 177 | 4.8 | 9.7 | 0.00 | 0.00 | 0.00 | 66 | 1013.8 |
| 20260507091318 | 6 | 173 | 6.4 | 9.7 | 0.00 | 0.00 | 0.00 | 66 | 1013.8 |
| 20260507090818 | 6 | 172 | 4.8 | 9.7 | 0.00 | 0.00 | 0.00 | 66 | 1013.9 |
| 20260507090543 | 6 | 169 | 3.2 | 9.7 | 0.00 | 0.00 | 0.00 | 66 | 1013.9 |
| 20260507085817 | 6 | 178 | 3.2 | 6.4 | 0.00 | 0.00 | 0.00 | 65 | 1013.9 |
| 20260507085317 | 6 | 178 | 3.2 | 8.0 | 0.00 | 0.00 | 0.00 | 65 | 1014.0 |
| 20260507084817 | 6 | 178 | 4.8 | 8.0 | 0.00 | 0.00 | 0.00 | 65 | 1014.0 |
| 20260507084315 | 6 | 184 | 4.8 | 8.0 | 0.00 | 0.00 | 0.00 | 64 | 1014.0 |
| 20260507083813 | 6 | 188 | 4.8 | 8.0 | 0.00 | 0.00 | 0.00 | 64 | 1014.1 |
| 20260507083313 | 6 | 178 | 4.8 | 8.0 | 0.00 | 0.00 | 0.00 | 63 | 1014.1 |
| 20260507082813 | 6 | 183 | 3.2 | 6.4 | 0.00 | 0.00 | 0.00 | 62 | 1014.2 |
| 20260507082318 | 6 | 182 | 3.2 | 6.4 | 0.00 | 0.00 | 0.00 | 62 | 1014.2 |
| 20260507081812 | 6 | 182 | 4.8 | 6.4 | 0.00 | 0.00 | 0.00 | 62 | 1014.3 |
| 20260507081538 | 7 | 184 | 3.2 | 6.4 | 0.00 | 0.00 | 0.00 | 61 | 1014.3 |
| 20260507080812 | 7 | 185 | 3.2 | 6.4 | 0.00 | 0.00 | 0.00 | 61 | 1014.3 |
| 20260507080310 | 7 | 188 | 4.8 | 8.0 | 0.00 | 0.00 | 0.00 | 60 | 1014.3 |
| 20260507075811 | 7 | 189 | 4.8 | 8.0 | 0.00 | 0.00 | 0.00 | 60 | 1014.3 |
| 20260507075307 | 7 | 188 | 4.8 | 8.0 | 0.00 | 0.00 | 0.00 | 60 | 1014.3 |
| 20260507074806 | 7 | 189 | 4.8 | 6.4 | 0.00 | 0.00 | 0.00 | 60 | 1014.3 |
| 20260507074308 | 7 | 188 | 4.8 | 8.0 | 0.00 | 0.00 | 0.00 | 60 | 1014.4 |
| 20260507073807 | 7 | 188 | 4.8 | 8.0 | 0.00 | 0.00 | 0.00 | 59 | 1014.4 |
| 20260507073306 | 7 | 187 | 4.8 | 8.0 | 0.00 | 0.00 | 0.00 | 59 | 1014.5 |
| 20260507072808 | 7 | 190 | 4.8 | 8.0 | 0.00 | 0.00 | 0.00 | 59 | 1014.5 |
| 20260507072308 | 7 | 192 | 4.8 | 9.7 | 0.00 | 0.00 | 0.00 | 58 | 1014.4 |
| 20260507072037 | 7 | 189 | 4.8 | 9.7 | 0.00 | 0.00 | 0.00 | 58 | 1014.5 |
| 20260507071528 | 7 | 190 | 4.8 | 9.7 | 0.00 | 0.00 | 0.00 | 58 | 1014.5 |
| 20260507070806 | 7 | 182 | 4.8 | 6.4 | 0.00 | 0.00 | 0.00 | 58 | 1014.6 |
| 20260507070307 | 7 | 181 | 4.8 | 9.7 | 0.00 | 0.00 | 0.00 | 58 | 1014.6 |
| 20260507065806 | 7 | 178 | 4.8 | 9.7 | 0.00 | 0.00 | 0.00 | 58 | 1014.7 |
| 20260507065307 | 7 | 190 | 4.8 | 9.7 | 0.00 | 0.00 | 0.00 | 58 | 1014.8 |
| 20260507064807 | 7 | 201 | 4.8 | 9.7 | 0.00 | 0.00 | 0.00 | 58 | 1014.9 |
| 20260507064308 | 7 | 199 | 4.8 | 11.3 | 0.00 | 0.00 | 0.00 | 58 | 1014.8 |
| 20260507063806 | 7 | 200 | 4.8 | 11.3 | 0.00 | 0.00 | 0.00 | 58 | 1014.8 |
| 20260507063307 | 7 | 192 | 4.8 | 9.7 | 0.00 | 0.00 | 0.00 | 59 | 1014.9 |
| 20260507062804 | 7 | 196 | 4.8 | 9.7 | 0.00 | 0.00 | 0.00 | 60 | 1014.9 |
| 20260507062257 | 7 | 197 | 4.8 | 9.7 | 0.00 | 0.00 | 0.00 | 61 | 1015.0 |
| 20260507061753 | 6 | 198 | 4.8 | 9.7 | 0.00 | 0.00 | 0.00 | 63 | 1015.0 |
| 20260507061246 | 6 | 216 | 4.8 | 8.0 | 0.00 | 0.00 | 0.00 | 67 | 1015.0 |
| 20260507060741 | 6 | 227 | 3.2 | 6.4 | 0.00 | 0.00 | 0.00 | 68 | 1015.0 |
| 20260507060715 | 6 | 236 | 1.6 | 6.4 | 0.00 | 0.00 | 0.00 | 71 | 1015.1 |
| 20260507055728 | 6 | 322 | 0.0 | 1.6 | 0.00 | 0.00 | 0.00 | 76 | 1015.1 |
| 20260507055223 | 6 | 322 | 0.0 | 0.0 | 0.00 | 0.00 | 0.00 | 76 | 1015.1 |
| 20260507054716 | 6 | 322 | 0.0 | 0.0 | 0.00 | 0.00 | 0.00 | 75 | 1015.1 |
| 20260507054210 | 6 | 321 | 0.0 | 3.2 | 0.00 | 0.00 | 0.00 | 74 | 1015.2 |
| 20260507053704 | 6 | 321 | 0.0 | 3.2 | 0.00 | 0.00 | 0.00 | 72 | 1015.2 |
| 20260507053158 | 6 | 321 | 0.0 | 0.0 | 0.00 | 0.00 | 0.00 | 71 | 1015.3 |
| 20260507052922 | 6 | 321 | 0.0 | 0.0 | 0.00 | 0.00 | 0.00 | 71 | 1015.3 |
| 20260507052403 | 6 | 321 | 0.0 | 0.0 | 0.00 | 0.00 | 0.00 | 69 | 1015.3 |
| 20260507051641 | 6 | 322 | 0.0 | 0.0 | 0.00 | 0.00 | 0.00 | 68 | 1015.3 |
| 20260507051405 | 6 | 317 | 0.0 | 0.0 | 0.00 | 0.00 | 0.00 | 68 | 1015.2 |
| 20260507050628 | 6 | 315 | 0.0 | 1.6 | 0.00 | 0.00 | 0.00 | 68 | 1015.2 |
| 20260507050341 | 6 | 315 | 0.0 | 1.6 | 0.00 | 0.00 | 0.00 | 68 | 1015.2 |